Wind_Speed
8 8 9 9 9 9 9 9 9 8 9 9 9 9 10 11 12 13 14 15 16 16 17 18 17 17 17 18 18 18 19 18 19 18 17 16 15 14 13 11 10 9 8
8 8 8 8 8 8 8 8 8 8 9 9 9 10 10 11 12 13 14 15 16 17 17 18 18 18 18 19 19 19 19 19 20 21 20 19 18 17 15 14 12 11 10
7 7 7 7 7 7 7 8 8 8 9 9 10 10 11 12 13 13 13 14 16 16 17 18 18 18 18 19 20 20 21 21 22 22 22 22 21 20 18 17 15 14 13
6 6 6 6 6 6 6 6 7 8 9 10 10 10 11 12 12 13 14 14 15 16 17 18 19 19 19 19 19 21 21 23 23 23 24 24 23 22 21 20 18 17 15
5 5 5 5 5 6 6 7 7 8 8 8 9 10 11 11 12 13 14 14 15 16 17 17 18 19 19 20 20 20 21 22 23 24 24 25 25 25 24 23 21 20 18
4 4 4 5 5 5 5 6 7 7 7 8 8 8 9 10 11 11 13 14 15 15 16 18 18 18 19 20 21 21 22 23 24 23 24 24 25 27 27 26 25 23 21
3 3 3 3 3 3 4 5 6 7 7 7 7 8 8 8 9 10 11 13 14 14 15 16 18 19 20 21 21 22 22 24 24 24 24 25 26 28 29 28 28 27 25
2 2 2 1 2 2 3 4 6 6 7 7 8 8 8 8 9 10 11 12 13 14 15 16 17 18 20 21 22 22 23 24 25 26 26 26 26 27 29 30 29 29 28
2 1 0 1 1 2 3 5 6 7 7 8 8 8 9 9 10 11 12 12 13 14 15 16 17 18 20 21 22 23 24 25 26 27 28 28 29 29 29 30 31 31 31
2 1 0 0 1 2 3 5 6 7 8 8 9 9 10 10 11 12 12 13 14 15 16 17 18 19 20 21 22 24 24 25 26 27 28 29 30 31 31 32 32 32 32
3 2 1 0 1 2 3 5 6 8 9 10 10 11 11 11 12 13 13 14 14 15 17 18 19 20 21 22 24 24 26 26 27 28 29 30 31 31 32 33 33 34 34
4 3 2 2 2 3 4 6 7 8 10 11 12 12 13 13 14 15 15 16 16 17 18 19 20 21 22 23 24 25 27 27 28 29 30 31 32 33 33 34 35 36 36
4 4 4 4 4 5 6 7 8 9 10 12 13 13 14 15 16 17 17 18 18 19 19 20 20 21 23 24 25 26 28 29 30 30 31 32 33 34 35 35 36 37 38
6 6 6 6 6 7 8 9 10 11 12 13 14 15 15 16 17 18 18 19 20 20 21 21 21 22 23 24 25 27 28 30 31 32 33 33 34 35 36 37 38 39 40
9 9 9 9 10 10 11 11 12 13 14 15 16 17 17 18 18 19 19 20 21 21 22 22 22 23 23 24 25 27 29 30 32 33 34 35 36 36 38 39 39 41 41
12 12 12 13 13 13 13 14 15 16 17 18 18 19 19 20 20 21 21 22 22 23 24 24 24 24 24 25 26 28 29 31 32 34 35 37 38 39 40 41 41 41 42
14 15 15 15 16 16 16 17 18 19 19 20 21 21 22 22 22 23 23 23 23 24 25 25 26 26 26 26 26 28 29 31 32 34 35 37 39 40 42 42 43 44 44
17 18 18 19 19 19 20 20 21 21 22 23 23 24 24 25 25 25 25 25 25 26 26 26 27 27 28 28 28 28 29 30 32 33 35 37 39 40 42 43 44 45 46
21 21 22 22 23 23 23 23 24 24 25 25 26 27 27 27 27 27 27 27 27 27 28 28 28 29 30 30 30 30 30 30 31 33 34 36 38 40 42 44 45 46 47
24 25 25 26 26 26 26 26 27 27 27 28 28 29 29 29 29 29 29 29 30 30 29 29 30 31 31 32 32 32 32 32 32 33 34 35 37 39 41 43 45 47 48
28 28 28 29 29 29 29 29 29 30 30 30 30 30 31 31 31 32 32 32 32 32 32 32 32 33 33 33 33 33 33 33 34 34 35 36 37 38 40 42 44 46 48
31 31 31 31 31 31 31 31 32 32 32 32 32 32 33 33 33 34 34 34 34 34 34 34 34 35 35 35 35 35 35 34 35 36 36 36 37 37 39 41 42 44 46
32 32 32 32 32 32 33 33 34 34 34 34 34 34 35 35 35 35 36 36 37 37 37 37 37 37 37 37 37 37 36 36 36 37 37 37 38 38 39 40 41 42 44
34 33 33 33 33 34 34 35 35 35 35 35 36 37 37 37 38 38 38 38 38 39 39 39 39 38 38 39 38 38 38 37 37 38 39 38 39 40 39 39 40 41 43
34 34 34 34 35 35 36 37 38 38 38 38 38 39 40 40 40 40 41 41 41 41 42 41 41 40 40 40 40 40 40 39 38 39 40 40 40 41 41 40 40 40 42
36 36 36 36 37 37 38 40 41 41 41 41 41 42 42 42 43 43 44 44 44 44 44 44 43 43 42 42 42 42 41 41 40 39 41 41 41 41 41 41 41 41 41
Wind_Direction
289 292 292 293 296 297 297 296 293 294 293 286 279 274 272 268 267 263 259 252 251 251 250 247 245 245 240 236 234 229 228 229 227 226 226 227 226 226 226 224 222 220 217
290 293 292 290 294 298 295 293 296 296 291 288 283 278 277 275 270 267 263 257 256 254 253 250 247 247 244 240 239 237 230 228 229 228 228 228 228 227 228 228 227 226 225
291 297 296 295 298 301 297 296 297 297 295 292 288 283 279 276 273 269 266 262 260 256 252 252 250 250 248 243 242 242 238 232 230 230 229 228 228 228 229 231 231 230 229
291 293 296 296 298 302 302 303 307 306 302 298 293 288 283 277 276 273 271 268 265 257 254 254 252 252 250 248 247 245 244 239 234 231 230 229 229 228 229 231 232 232 232
280 286 295 298 299 300 303 309 312 312 308 303 298 294 287 282 278 275 273 271 271 262 255 253 253 252 252 251 249 248 248 243 241 238 234 232 231 230 230 230 232 233 234
277 286 292 294 301 309 316 320 320 321 320 314 309 304 295 291 286 282 278 274 275 270 260 255 253 253 253 253 253 251 249 248 246 244 239 235 233 232 231 231 232 233 234
263 283 290 295 307 322 325 330 331 331 330 326 321 318 311 303 296 290 286 282 278 276 270 263 259 256 255 256 256 254 253 250 249 248 245 241 237 234 234 234 234 234 234
245 266 293 309 318 328 332 340 342 343 343 337 329 323 317 308 302 296 291 286 283 280 277 271 267 263 261 260 258 257 255 253 251 250 249 247 244 239 237 236 236 237 235
217 220 266 346 342 344 348 351 351 351 348 343 339 331 322 313 306 300 295 290 286 283 280 276 273 269 266 263 261 259 258 255 254 253 252 249 246 244 243 241 238 237 238
195 186 160 16 0 356 356 353 353 352 348 343 338 333 327 319 314 308 301 294 289 286 282 278 276 272 269 267 265 262 260 258 256 255 253 251 248 246 244 243 243 241 240
192 187 190 271 340 350 350 349 348 346 343 340 336 332 327 321 317 313 308 302 296 292 288 284 280 276 271 268 266 264 262 261 259 258 256 254 251 248 245 244 244 245 243
201 205 227 266 304 327 335 339 339 339 339 337 334 331 326 323 319 315 310 306 301 296 291 287 284 279 275 271 268 265 263 262 261 260 258 256 253 251 250 247 245 246 246
217 229 247 267 288 306 316 320 326 329 331 332 332 330 326 323 320 316 312 308 304 300 295 291 287 283 279 275 271 268 265 263 261 260 258 257 255 253 251 250 248 247 246
236 246 256 269 284 295 302 306 312 317 320 323 324 325 324 322 319 316 313 310 306 303 299 295 290 286 283 279 275 271 268 265 263 260 259 257 256 254 252 252 250 248 247
249 256 263 271 279 287 294 298 301 306 311 314 317 318 320 320 318 315 313 310 308 304 301 297 293 289 285 282 278 275 271 268 265 263 260 258 257 256 255 254 253 251 249
255 260 266 271 277 282 286 292 297 301 305 309 312 314 315 315 314 314 312 310 308 305 302 299 297 293 289 285 282 278 275 272 269 266 263 261 258 257 255 254 253 253 251
261 265 268 272 275 279 284 290 294 298 301 304 307 310 311 311 311 311 310 309 307 305 303 300 298 295 292 289 286 282 278 274 271 269 266 264 261 259 257 255 254 253 251
264 267 269 271 275 279 283 288 292 296 298 300 304 306 307 308 308 308 307 307 306 304 303 300 298 297 295 292 290 286 282 277 274 271 269 266 264 261 259 257 255 253 252
265 267 269 272 276 280 284 287 290 294 296 298 301 303 304 305 305 305 305 305 304 304 303 300 299 297 296 295 292 289 286 282 278 275 272 269 266 264 261 259 256 254 252
267 269 271 274 277 280 283 286 288 292 295 297 299 301 301 302 303 303 303 302 302 302 302 300 299 298 298 297 294 292 288 285 282 279 276 273 270 267 264 261 258 255 253
269 271 273 275 278 281 284 286 288 290 293 295 297 299 300 300 301 301 301 300 300 300 300 299 298 298 297 297 295 293 290 287 285 282 280 277 274 270 267 263 260 257 254
272 274 275 278 280 282 284 286 288 290 292 294 295 297 298 299 299 300 299 299 299 299 298 299 298 297 297 297 296 294 291 289 286 284 282 279 276 273 269 266 262 259 257
272 275 277 278 280 282 284 286 287 289 290 292 294 295 296 297 297 297 297 297 298 298 297 297 297 297 296 296 296 294 292 290 287 284 282 279 277 275 272 268 265 262 259
273 275 277 279 281 282 284 286 287 288 289 291 292 293 294 295 296 295 295 295 296 296 296 296 296 296 296 296 295 294 292 290 287 284 282 280 277 276 274 271 267 264 261
275 276 278 280 282 284 286 287 287 288 289 290 291 292 293 293 294 294 294 294 295 295 295 295 295 294 294 294 294 293 292 290 287 285 283 281 278 276 274 272 269 265 262
277 278 279 281 283 284 286 287 288 288 288 288 289 290 291 291 291 292 293 293 294 294 294 294 294 294 293 293 293 292 291 289 286 285 283 281 279 276 274 271 269 266 262
Height
5889 5889 5888 5888 5888 5887 5887 5887 5887 5886 5886 5886 5886 5886 5886 5886 5886 5887 5887 5888 5888 5889 5889 5890 5891 5892 5893 5894 5895 5897 5898 5900 5902 5904 5906 5907 5909 5910 5911 5912 5913 5914 5915
5887 5886 5886 5886 5886 5886 5885 5885 5884 5884 5884 5884 5883 5883 5883 5883 5883 5884 5884 5884 5885 5885 5886 5887 5888 5888 5889 5890 5892 5893 5895 5896 5899 5900 5902 5904 5906 5908 5909 5911 5912 5913 5914
5885 5884 5884 5884 5884 5884 5883 5883 5882 5882 5882 5881 5881 5880 5880 5880 5881 5880 5881 5881 5881 5881 5882 5883 5884 5885 5885 5886 5888 5889 5891 5892 5895 5897 5898 5900 5903 5905 5907 5908 5910 5911 5913
5883 5883 5883 5882 5882 5882 5882 5881 5881 5880 5880 5879 5879 5878 5878 5878 5878 5878 5877 5877 5877 5878 5879 5879 5880 5881 5882 5883 5884 5885 5886 5888 5890 5892 5894 5896 5899 5901 5903 5905 5907 5909 5911
5882 5881 5881 5881 5881 5881 5880 5880 5879 5878 5878 5877 5876 5876 5875 5875 5875 5875 5874 5874 5874 5874 5875 5876 5876 5877 5878 5879 5880 5881 5882 5884 5886 5888 5889 5892 5894 5897 5899 5902 5904 5906 5908
5880 5880 5880 5879 5879 5879 5879 5878 5877 5877 5876 5875 5875 5874 5873 5873 5872 5872 5871 5871 5871 5871 5871 5872 5872 5873 5874 5875 5876 5877 5878 5880 5881 5883 5885 5887 5889 5892 5894 5897 5900 5902 5904
5879 5879 5879 5878 5878 5878 5878 5877 5876 5875 5875 5874 5873 5872 5871 5871 5870 5870 5869 5869 5868 5868 5868 5868 5869 5869 5870 5871 5872 5873 5874 5875 5876 5878 5880 5882 5884 5886 5889 5892 5894 5897 5900
5879 5878 5878 5878 5877 5877 5877 5876 5875 5874 5873 5872 5872 5871 5870 5870 5868 5868 5867 5866 5866 5865 5865 5865 5865 5865 5866 5867 5868 5868 5869 5870 5872 5873 5875 5877 5878 5881 5883 5886 5889 5892 5894
5878 5877 5877 5877 5877 5877 5876 5875 5874 5873 5872 5871 5870 5870 5869 5868 5867 5866 5865 5864 5863 5863 5862 5862 5862 5862 5862 5862 5863 5864 5865 5865 5867 5868 5870 5871 5873 5875 5878 5880 5882 5885 5888
5877 5877 5876 5876 5876 5876 5875 5874 5873 5872 5871 5870 5869 5868 5867 5865 5864 5863 5862 5861 5860 5859 5859 5858 5858 5858 5858 5858 5858 5859 5859 5860 5861 5862 5863 5865 5867 5869 5871 5874 5876 5879 5882
5876 5876 5876 5876 5876 5875 5874 5873 5872 5871 5870 5869 5868 5866 5865 5863 5862 5861 5859 5858 5857 5856 5855 5854 5854 5853 5853 5853 5853 5853 5854 5854 5855 5856 5857 5859 5861 5862 5864 5867 5869 5872 5874
5875 5875 5875 5875 5875 5874 5873 5872 5871 5870 5869 5867 5866 5864 5863 5861 5859 5857 5856 5855 5853 5852 5851 5850 5849 5848 5847 5847 5847 5848 5848 5848 5849 5850 5851 5852 5854 5856 5858 5860 5862 5864 5867
5874 5874 5874 5874 5873 5873 5872 5871 5870 5869 5867 5866 5864 5862 5860 5858 5856 5854 5852 5851 5849 5848 5847 5845 5844 5843 5842 5841 5841 5841 5841 5841 5842 5843 5844 5845 5846 5848 5850 5852 5854 5856 5859
5872 5872 5872 5872 5871 5871 5870 5869 5868 5866 5865 5863 5861 5859 5857 5855 5853 5851 5849 5847 5845 5843 5841 5840 5839 5837 5836 5835 5835 5834 5834 5834 5835 5835 5836 5837 5838 5840 5842 5844 5846 5848 5850
5870 5870 5870 5869 5869 5868 5867 5866 5865 5863 5862 5860 5858 5856 5854 5852 5849 5847 5844 5842 5841 5838 5836 5834 5833 5831 5830 5829 5828 5827 5827 5827 5826 5827 5828 5828 5830 5831 5833 5834 5836 5839 5841
5867 5867 5867 5866 5866 5865 5864 5862 5861 5860 5858 5856 5854 5852 5850 5847 5845 5843 5840 5838 5835 5833 5830 5828 5827 5825 5823 5822 5821 5820 5819 5818 5818 5818 5818 5819 5820 5822 5823 5825 5827 5829 5831
5864 5864 5863 5862 5862 5861 5859 5858 5857 5855 5853 5852 5849 5847 5845 5843 5840 5838 5835 5833 5830 5827 5825 5822 5820 5818 5816 5815 5813 5812 5811 5810 5809 5809 5809 5809 5810 5811 5812 5814 5816 5818 5821
5860 5859 5859 5858 5857 5856 5855 5853 5852 5850 5848 5846 5844 5842 5839 5837 5834 5832 5829 5827 5824 5821 5819 5816 5813 5811 5809 5807 5805 5804 5802 5801 5800 5799 5799 5799 5799 5800 5801 5803 5805 5807 5809
5855 5854 5854 5853 5852 5850 5849 5847 5846 5844 5842 5840 5838 5835 5833 5830 5828 5825 5822 5820 5817 5815 5812 5809 5806 5803 5801 5799 5797 5795 5793 5792 5790 5790 5789 5789 5789 5789 5790 5791 5793 5795 5798
5849 5849 5848 5847 5845 5844 5843 5841 5839 5837 5835 5833 5830 5828 5825 5823 5820 5818 5815 5812 5810 5807 5804 5801 5798 5796 5793 5790 5788 5786 5784 5782 5781 5779 5778 5778 5778 5777 5778 5779 5780 5782 5784
5843 5842 5841 5840 5838 5837 5835 5833 5832 5829 5827 5825 5823 5820 5818 5815 5812 5810 5807 5804 5801 5799 5796 5793 5790 5787 5784 5782 5779 5777 5774 5772 5770 5769 5768 5767 5766 5766 5766 5766 5767 5769 5771
5836 5835 5833 5832 5831 5829 5828 5825 5823 5821 5819 5816 5814 5812 5809 5806 5804 5801 5798 5795 5792 5790 5787 5784 5781 5778 5775 5772 5769 5766 5764 5762 5760 5758 5757 5756 5754 5754 5754 5754 5755 5756 5758
5828 5827 5825 5824 5822 5821 5819 5817 5814 5812 5810 5807 5805 5802 5799 5797 5794 5791 5789 5785 5783 5780 5777 5774 5771 5768 5765 5762 5759 5756 5754 5751 5749 5747 5745 5744 5743 5742 5742 5742 5743 5743 5745
5819 5818 5816 5815 5813 5811 5809 5807 5804 5802 5800 5797 5795 5792 5789 5787 5784 5781 5778 5775 5772 5770 5767 5764 5761 5757 5754 5751 5748 5745 5743 5740 5738 5735 5733 5732 5731 5730 5729 5729 5730 5731 5731
5810 5808 5807 5805 5803 5801 5799 5797 5794 5792 5789 5787 5784 5782 5779 5776 5773 5770 5767 5764 5761 5758 5755 5752 5749 5746 5743 5740 5737 5734 5731 5729 5727 5724 5721 5720 5719 5717 5717 5717 5717 5717 5718
5799 5798 5796 5794 5792 5790 5788 5785 5782 5780 5778 5775 5773 5770 5767 5765 5761 5758 5755 5752 5749 5746 5743 5740 5737 5734 5731 5728 5725 5722 5719 5716 5714 5712 5709 5707 5706 5705 5705 5704 5704 5704 5705